星链-6185 (STARLINK-6185 )

导读 | 豆包AI

STARLINK-6185是美国SpaceX公司星链星座中的一颗第二代低轨通信卫星,于2023年6月12日发射入轨。星链项目旨在通过大规模低地球轨道卫星星座,为全球提供高速低延迟宽带互联网服务。作为SpaceX批量部署的卫星之一,它工作在近地轨道,依托星链星座的动态组网能力,可支持偏远地区网络覆盖、移动互联等应用,是星链全球卫星互联网组网进程中的组成部分。

基本信息
目录编号:
56901
目录名称:
STARLINK-6185
国际标识:
2023-083AB
轨道中心:
EARTH
卫星名称:
星链-6185
卫星全名:
星链-6185 (STARLINK-6185 )
卫星状态:
在轨 (已飞行1053 天)
发射日期:
2023-06-12 UTC
国别 :
美国 (US)
星等 :
--
轨道信息
数据来源 国际轨道数据
星历时间: 2026-04-29T22:11:00+0800
16小时前
查看轨道信息
半长轴: 6863.667km
偏心率: 0.000127
轨道倾角: 43.003°
近地点辐角 270.192°
升交点赤经 154.432°
平近点角 89.879°
近地点: 484.658km
远地点: 486.402km
周期: 94.318分钟
每日圈数: 15.267521
详细信息
固有亮度:
5
最大亮度:
2.4
卫星平台:
Starlink v1.5
覆盖范围:
全球
运营商:
太空探索技术公司
运营商所在国:
美国
制造商(研发单位):
太空探索技术公司
制造商所在国:
美国
使用方式:
暂无
卫星简介
星链(Starlink)计划是由太空探索技术公司(SpaceX)提出的一个巨型低轨卫星互联网星座项目,计划在2019年至2024年间在太空搭建由约1.2万颗卫星组成的“星链”网络,其中1584颗将部署在地球上空550千米处的近地轨道,并从2020年开始工作。该卫星仍在工作。
2D轨道图
3D轨道图
轨道高度分析图
轨道倾角分析图
轨道综合分析图
查看轨道综合分析图